SAUDICOMSAT 4

Last updated on Sun Jun 21 2026 00:03:22 GMT+0000 (Coordinated Universal Time)

1 31127U 07012L 26171.43413678 .00000324 00000+0 69416-4 0 9995 2 31127 98.3984 144.0709 0062131 247.8695 111.5904 14.64514785 21768
UTC large
Height (km)
Speed (km/s)
/
Latitude / Longitude
Inclination (degrees)
Orbital Period (minutes)
Azimuth
Elevation
Range (km)
Doppler Factor

Next 0 passes for location: London (51.5072 / 0.1276)

No passes found over London.
SAUDICOMSAT 4